Regional Weather Roundup
Issued by NWS State College, PA

Home | Current Version | Previous Version | Text Only | Print | Product List | Glossary On
Versions: 1 2 3 4 5 6 7 8 9 10 11 12 13 14 15 16 17 18 19 20 21 22 23 24 25 26 27 28 29 30 31 32 33 34 35 36 37 38 39 40 41 42 43 44 45 46 47 48 49 50
000
ASUS41 KCTP 302210
RWRCTP

REGIONAL WEATHER ROUNDUP
NATIONAL WEATHER SERVICE STATE COLLEGE PA
600 PM EDT SAT JUL 30 2016

Note: "fair" indicates few or no clouds below 12,000 feet with no
significant weather and/or obstructions to visibility.

* = STATION THAT DOES NOT REPORT PRECIPITATION /E.G. RAIN...SNOW...ETC/
    THUNDER OR FOG.

PAZ002>004-007>009-013>016-020>023-029>032-302300-
WESTERN PENNSYLVANIA

CITY           SKY/WX    TMP DP  RH WIND       PRES   REMARKS
ERIE           CLOUDY    80  69  69 NE12      29.95R
MEADVILLE      LGT RAIN  72  68  87 CALM      29.97S
FRANKLIN*      CLOUDY    73  66  78 S3        29.99S
NEW CASTLE     CLOUDY    78  70  76 N5        29.96R
BEAVER COUNTY  NOT AVBL
BUTLER*        PTSUNNY   77  68  73 SE5       29.99R
PITTSBURGH INT PTSUNNY   80  65  59 CALM      29.94S
PITTSBURGH     PTSUNNY   75  68  78 SE5       29.95R
INDIANA*       PTSUNNY   75  72  88 E6        30.00S
LATROBE        CLOUDY    73  72  94 W6        29.97S
WASHINGTON CO* CLOUDY    75  70  83 CALM      29.96S
$$

PAZ004>006-010>012-017>019-024>028-033>037-041-042-045-046-049>053-302300-
CENTRAL PENNSYLVANIA

CITY           SKY/WX    TMP DP  RH WIND       PRES   REMARKS
BRADFORD       CLOUDY    69  64  84 E7        30.03S
DUBOIS         PTSUNNY   74  66  76 E7        29.99F
CLEARFIELD     PTSUNNY   72  66  81 NE8       30.01R
JOHNSTOWN      PTSUNNY   72  65  78 CALM      30.00S
ALTOONA        CLOUDY    74  71  91 N7        29.98S
STATE COLLEGE  CLOUDY    72  68  88 NE10      29.98S FOG
WILLIAMSPORT   CLOUDY    73  68  84 E8        29.96F
SELINSGROVE    LGT RAIN  74  74 100 N5        29.96F
FT INDIANTOWN  LGT RAIN  72  72 100 VRB3      29.97F FOG
CAPITAL CITY   LGT RAIN  75  71  87 E8        29.95S FOG
HARRISBURG     LGT RAIN  74  73  97 SE8       29.94F
YORK           HVY RAIN  74  72  93 E5        29.96S FOG
$$

PAZ038>040-043-044-047-048-054-055-060>062-067>071-302300-
EASTERN PENNSYLVANIA

CITY           SKY/WX    TMP DP  RH WIND       PRES   REMARKS
SCRANTON       RAIN      69  67  93 NE3       30.03S FOG
MOUNT POCONO   LGT RAIN  66  64  93 NE3       30.09R
ALLENTOWN      LGT RAIN  73  70  90 NE8       30.00F
QUAKERTOWN*    CLOUDY    73  73 100 CALM      30.01S
READING        HVY RAIN  72  70  93 CALM      29.98R FOG
LANCASTER      LGT RAIN  71  71 100 NE7       29.97S FOG
COATESVILLE    LGT RAIN  72  72 100 NE3       30.00F
POTTSTOWN      LGT RAIN  73  71  93 E5        30.00S
BLUE BELL      CLOUDY    77  70  78 S6        29.98S
DOYLESTOWN     CLOUDY    71  71 100 VRB3      30.00R
WILLOW GROVE   NOT AVBL
NORTH PHILA    LGT RAIN  82  72  71 S6        29.99R
PHILADELPHIA   LGT RAIN  79  71  76 S8        29.98S
$$




USA.gov is the U.S. government's official web portal to all federal, state and local government web resources and services.